Location: Unspecified
(0.0000°N, 0.0000°E)
Time: 07:15:21
(UTC+00:00)

TRS 6 - Pass Details

Date: 23 February 2019
Orbit: 3561 x 3726 km, 87.3° (Epoch: 22 October)

Event Time Altitude Azimuth Distance (km) Brightness Sun altitude
Rises 04:55:52 0° 43° (NE) 7,729 ? -19.1°
Reaches altitude 10° 05:04:39 10° 67° (ENE) 6,665 ? -16.9°
Maximum altitude 05:12:52 14° 95° (E) 6,263 ? -14.9°
Drops below altitude 10° 05:20:55 10° 122° (ESE) 6,618 ? -12.9°
Sets 05:29:05 0° 144° (SE) 7,637 ? -10.9°
